GFSNW_925_spd_147.txt.gz
Wind_Speed
28 26 24 24 23 21 16 5 7 12 36 8 4 10 20 16 15 18 15 6 5 13 7 4 13 11 8 5 5 16 8 4 5 9 8 9 5 7 6 4 3 3 4 1
29 28 27 27 25 25 10 3 4 19 25 10 7 7 19 18 12 19 13 14 10 8 10 5 3 1 3 9 6 3 6 4 4 3 2 1 4 9 11 6 2 4 4 3
31 31 31 31 30 30 26 3 4 5 9 5 18 15 16 21 18 21 17 11 11 6 6 7 4 6 2 5 5 13 6 2 6 11 2 5 5 9 11 12 5 4 4 9
33 33 33 34 35 34 30 7 6 5 6 16 11 17 14 23 16 18 14 10 15 10 7 11 9 7 6 5 4 5 4 3 4 4 9 13 7 8 16 10 10 8 8 7
35 35 34 35 37 36 32 7 7 5 3 18 23 21 18 17 21 10 23 18 20 15 18 14 15 7 6 5 3 5 4 8 2 13 14 13 12 10 11 14 9 11 8 3
34 36 38 38 40 39 20 20 18 8 9 7 17 19 26 28 22 21 21 20 14 17 21 15 9 8 9 7 9 5 7 6 4 6 14 17 14 8 7 5 4 7 9 5
39 41 43 44 44 44 35 20 13 11 17 14 14 25 27 27 27 24 16 20 15 22 6 7 6 9 3 9 7 8 9 9 5 1 4 15 5 11 10 12 9 6 11 9
49 52 48 51 53 53 49 39 23 13 14 15 19 16 19 18 14 19 20 15 18 8 6 3 3 1 2 1 6 7 6 7 2 6 11 10 3 4 5 4 6 9 11 10
32 32 40 48 38 52 55 45 38 14 15 17 18 14 24 14 16 12 14 7 5 6 4 3 5 5 5 6 5 14 13 8 6 4 11 13 5 16 5 2 3 7 14 11
21 23 25 33 34 36 44 32 48 22 11 16 17 16 14 11 8 9 5 5 2 5 2 3 3 3 7 7 8 11 12 9 15 6 1 5 4 6 4 5 5 9 10 9
22 27 28 31 36 44 45 32 49 33 10 4 24 16 20 10 12 11 5 4 1 3 6 7 4 4 5 3 6 11 11 9 5 3 5 8 5 5 3 9 8 9 9 11
27 30 30 34 40 51 59 20 42 42 6 3 6 22 18 8 16 12 8 4 5 5 3 3 4 3 3 6 3 5 3 6 5 7 4 1 6 10 11 13 11 10 12 11
13 15 19 27 44 57 74 48 46 35 8 2 3 3 5 16 21 29 7 3 6 5 4 3 0 5 2 3 2 4 4 5 3 3 6 14 10 11 16 14 14 13 13 10
3 6 7 2 9 19 55 45 51 39 5 2 4 4 3 10 19 18 14 13 10 5 3 3 2 3 2 1 2 3 4 9 8 3 13 13 12 15 16 16 14 14 15 13
16 11 16 23 38 41 40 40 50 41 4 4 1 10 7 21 24 24 18 12 13 4 3 3 2 3 3 3 3 2 1 6 4 4 10 9 12 11 16 15 13 12 15 13
26 28 26 36 41 46 42 6 24 31 15 4 3 1 8 16 26 19 14 9 6 3 2 2 3 4 4 3 2 1 4 7 8 5 17 18 17 15 16 14 13 13 13 15
16 20 17 15 17 22 7 5 16 25 17 3 3 3 2 14 13 4 8 6 3 3 3 2 3 1 3 3 3 8 11 15 16 17 18 12 8 8 12 14 14 19 17 19
22 20 18 22 26 29 20 27 24 18 8 3 3 3 3 3 2 3 3 3 2 3 2 2 2 2 3 4 15 14 13 15 14 13 14 14 13 13 9 13 10 12 11 15
9 13 19 19 11 5 6 24 24 16 5 3 2 3 4 2 6 4 3 3 3 3 3 2 3 2 2 14 15 15 13 9 15 15 16 13 13 10 9 8 10 13 12 16
12 6 5 4 5 4 5 9 4 6 4 4 2 3 5 4 2 2 3 3 2 2 2 3 3 4 7 12 12 10 17 17 16 16 12 11 10 9 13 13 13 16 16 17
2 3 3 1 6 5 4 3 3 2 3 3 3 7 9 3 5 2 2 2 2 3 3 3 2 1 3 14 15 12 12 10 9 11 9 10 15 13 13 13 18 19 18 16
4 4 3 3 3 3 6 1 2 4 3 2 5 4 4 3 4 3 3 2 1 3 3 3 3 3 6 12 12 13 14 16 16 21 17 20 20 22 21 17 17 18 19 19
6 4 5 4 3 8 4 3 2 3 4 2 3 3 3 3 3 3 3 4 0 2 3 2 2 9 8 11 12 14 19 23 23 21 23 25 23 22 24 20 21 21 20 18
2 3 6 3 4 3 2 6 5 2 7 8 4 3 3 2 3 2 4 1 3 2 3 3 6 12 10 9 11 14 12 14 15 16 19 20 21 21 22 22 22 22 20 16
3 4 4 3 2 1 3 7 10 5 4 4 4 3 3 2 4 2 3 2 3 4 2 4 9 12 11 12 13 12 12 10 12 16 16 19 21 20 21 21 19 19 17 16
3 7 3 2 10 9 7 5 5 3 2 2 3 3 3 2 4 2 3 4 2 2 2 8 11 12 12 12 11 11 16 17 17 17 20 23 23 20 23 21 18 17 18 14
4 3 3 3 5 5 5 3 3 4 3 2 3 4 1 1 2 3 4 2 2 6 7 8 10 11 13 11 15 17 19 18 18 21 22 23 24 25 24 20 17 15 13 12

GFSNW_925_spd_153.txt.gz
Wind_Speed
26 23 21 21 20 19 15 8 4 11 31 7 3 12 9 9 10 10 8 4 5 3 2 4 3 3 7 10 2 8 6 1 13 6 3 3 1 6 6 4 5 4 3 8
25 24 23 21 20 20 12 2 3 11 24 10 11 10 14 11 8 14 5 9 6 1 3 3 6 6 5 6 9 5 7 5 7 3 4 4 2 3 2 4 2 5 4 4
27 27 26 24 23 21 21 3 3 2 6 5 14 16 17 19 8 15 9 10 10 10 15 9 6 3 3 3 2 7 3 4 11 15 3 4 5 5 4 5 2 6 10 4
24 24 25 26 27 25 21 4 4 5 6 12 13 17 14 16 15 12 13 4 20 11 6 11 18 12 8 3 5 3 4 4 6 3 6 6 6 5 6 7 14 8 22 16
22 23 25 27 29 28 21 5 5 1 3 4 22 14 20 24 18 11 20 16 19 11 13 16 4 12 5 6 6 4 4 5 3 7 3 6 6 8 9 11 14 13 19 25
24 25 27 30 32 32 11 11 3 2 8 12 4 13 14 26 21 16 20 15 14 11 25 4 9 6 5 5 5 7 3 4 5 7 6 2 4 21 13 9 10 15 17 8
25 27 29 32 34 37 22 8 5 5 10 6 14 16 13 16 20 21 7 13 8 22 5 4 2 3 2 6 9 8 5 4 3 2 3 7 7 6 16 21 23 19 7 6
28 29 31 33 34 39 31 21 11 5 7 11 13 5 9 11 17 16 21 20 12 3 4 1 4 4 4 9 7 10 11 6 3 3 6 6 7 3 6 8 9 12 7 10
30 30 32 34 36 37 39 33 30 8 9 14 12 15 15 9 9 9 8 10 4 4 3 2 6 5 4 4 2 5 8 5 6 3 4 6 4 5 4 5 8 4 9 15
35 39 41 41 40 40 40 22 37 21 10 6 10 12 11 6 7 5 2 5 6 6 3 5 5 7 6 6 7 4 3 2 9 4 4 6 6 7 1 6 5 4 11 13
42 44 46 47 46 47 45 38 33 24 4 7 11 11 12 4 10 11 2 2 4 0 7 5 5 4 7 4 5 6 7 7 4 2 4 8 1 1 6 5 7 10 13 12
41 32 27 51 52 48 49 24 39 37 7 3 22 26 35 21 19 6 6 4 6 6 3 4 2 4 1 4 4 3 4 6 6 7 5 3 3 1 7 7 14 7 14 13
22 24 25 28 35 46 60 44 33 24 9 6 9 9 26 32 32 32 4 3 4 4 2 4 3 3 3 3 4 3 3 3 3 5 2 3 10 12 12 11 15 14 15 14
28 31 34 34 33 36 35 40 40 40 3 6 6 25 24 26 33 33 22 13 4 3 1 2 2 3 4 2 3 3 5 6 6 4 8 11 8 12 16 17 17 14 13 12
22 28 26 44 41 37 34 23 35 47 11 7 3 7 23 30 28 28 27 21 5 2 3 2 3 1 2 2 0 3 4 6 6 5 11 7 10 13 17 17 14 13 15 13
13 19 24 38 42 41 29 3 29 33 18 2 3 2 5 16 23 18 14 13 7 3 3 2 3 3 4 3 3 4 2 2 7 6 6 11 15 12 13 15 13 12 12 16
10 11 16 27 31 41 14 5 19 45 19 2 2 2 1 7 4 3 3 2 2 2 3 3 2 1 2 2 3 3 4 8 16 20 19 11 8 7 13 17 20 22 20 19
16 14 15 10 37 31 14 6 49 51 5 2 3 2 2 2 3 2 1 2 2 1 2 3 2 2 1 3 3 5 11 14 16 16 9 13 16 17 15 21 21 15 12 15
15 10 16 21 10 3 12 42 43 24 5 3 2 4 3 3 3 3 2 2 2 1 2 2 3 1 3 5 11 13 16 8 15 15 18 19 17 17 15 14 13 15 12 12
7 6 4 4 7 48 41 11 3 1 3 3 2 3 3 3 3 2 3 2 3 3 1 3 2 1 3 12 10 10 12 18 22 22 15 16 16 15 14 12 10 13 13 16
1 3 4 7 15 7 3 3 3 3 1 1 1 1 5 2 3 3 2 3 3 2 3 3 1 2 2 8 11 11 12 13 6 12 15 13 17 16 14 12 15 17 18 16
5 12 11 4 1 3 5 2 2 2 4 3 3 3 2 2 1 3 1 3 1 3 3 3 2 2 6 11 12 11 10 12 13 19 15 19 19 20 19 18 17 16 19 22
4 4 4 3 2 4 4 5 2 4 4 3 3 4 3 2 2 3 3 3 1 1 3 3 2 5 7 10 11 10 11 18 18 16 21 22 21 19 23 19 22 25 25 24
3 3 5 3 3 1 2 1 4 3 5 9 5 2 3 1 3 1 4 1 3 3 3 5 5 10 10 8 9 14 11 13 14 13 19 19 19 19 22 24 27 27 24 24
3 3 4 3 2 1 1 2 7 5 3 4 3 3 3 2 3 2 3 3 2 5 4 3 8 11 12 11 10 12 11 10 11 16 15 18 20 20 21 25 25 27 28 25
3 5 3 2 6 7 6 5 4 2 2 2 3 3 3 3 4 2 2 5 5 3 2 4 11 12 10 11 10 9 12 14 16 16 18 21 21 21 25 24 26 27 27 25
4 3 4 3 4 4 2 3 2 2 3 2 3 4 1 2 2 2 1 1 2 2 5 6 10 13 11 10 10 14 17 16 17 19 20 21 25 29 25 20 22 23 22 19

GFSNW_925_spd_159.txt.gz
Wind_Speed
30 28 26 22 20 21 16 8 3 6 22 5 2 10 8 4 3 3 2 2 1 3 1 2 3 3 2 2 4 9 4 2 3 5 2 4 3 4 8 8 11 5 9 17
27 27 26 27 25 25 14 3 2 2 11 8 9 4 7 5 1 4 3 6 6 2 2 3 9 10 4 7 4 3 3 1 4 5 2 1 6 14 10 2 5 11 12 14
19 19 22 27 29 27 23 3 4 2 5 2 11 15 13 8 3 6 6 2 3 2 4 3 5 2 3 8 4 3 3 2 6 9 4 1 5 12 10 12 10 16 17 22
22 23 26 28 28 29 23 4 4 2 6 13 13 8 7 17 11 9 9 6 15 5 7 12 17 6 7 9 11 9 4 11 11 16 16 13 15 15 17 12 17 11 19 19
22 21 22 22 27 31 15 4 4 2 2 8 13 18 13 20 16 9 7 15 4 13 17 14 7 5 9 7 2 2 4 5 2 11 12 10 17 19 17 19 18 19 21 21
21 20 22 25 25 24 3 4 2 3 7 5 6 9 9 8 16 11 12 11 7 11 13 10 13 10 12 12 12 11 6 3 3 10 3 6 9 19 17 14 15 12 14 17
21 21 20 23 24 34 9 6 5 3 3 9 11 6 9 14 14 9 5 2 5 2 12 6 5 6 11 12 16 10 9 6 5 9 7 11 7 4 7 12 16 18 18 17
17 18 20 22 25 27 13 10 5 3 3 8 6 7 6 5 3 3 3 3 5 5 6 4 5 4 4 12 18 15 16 12 7 7 10 14 17 10 8 8 10 12 17 14
18 19 19 19 19 21 22 17 17 3 3 10 12 10 10 7 3 3 4 3 7 5 3 4 6 6 5 4 4 2 14 14 11 5 6 8 4 2 2 6 9 3 5 9
22 22 22 20 19 19 21 10 23 7 3 3 9 9 10 7 5 3 1 4 3 6 3 4 7 6 5 7 9 4 4 7 16 13 11 10 8 5 1 7 3 2 2 9
20 21 22 23 24 23 23 15 24 20 3 4 6 10 8 4 7 8 4 2 3 4 6 4 7 6 7 8 4 11 10 6 6 9 10 14 2 4 8 1 3 4 9 10
25 26 26 26 26 26 26 13 21 27 3 2 14 22 26 20 16 7 4 5 6 6 5 5 4 7 2 3 6 1 6 7 4 7 5 1 2 3 5 3 6 6 11 13
26 27 28 29 28 28 30 23 22 19 6 7 9 11 25 33 29 25 8 3 8 6 4 1 3 8 6 6 6 5 5 5 4 2 4 2 3 4 1 4 9 11 15 16
27 28 29 32 33 33 32 29 24 29 2 5 6 15 27 24 28 30 27 16 7 3 1 3 3 5 3 3 2 5 3 8 7 5 2 4 5 4 8 13 17 18 15 15
40 41 41 41 42 45 44 40 29 39 14 4 5 5 17 29 31 33 29 20 7 3 4 3 4 3 3 2 1 3 5 5 5 5 8 4 6 11 14 16 16 17 19 17
23 30 29 27 23 20 24 5 29 44 36 2 3 3 3 20 24 19 20 15 7 6 4 3 3 4 3 3 3 5 8 5 9 5 10 4 16 14 13 14 15 16 16 17
24 28 34 33 31 29 4 4 15 43 33 2 3 4 2 10 9 6 5 10 4 4 3 5 7 4 2 3 3 3 4 6 6 15 15 9 12 8 11 16 20 22 21 20
11 20 30 30 28 22 8 6 30 50 15 3 3 3 3 10 5 4 5 5 5 5 3 2 3 3 3 5 8 9 5 7 13 17 1 12 17 15 15 21 22 18 15 15
9 5 23 29 10 4 8 17 44 28 5 5 4 4 3 4 3 3 2 3 5 4 5 4 6 5 7 9 11 8 10 11 14 12 16 19 20 18 17 17 16 17 15 13
11 11 5 3 10 46 41 8 2 2 2 2 3 4 3 5 2 3 4 3 3 4 5 4 4 6 9 7 8 8 12 16 18 16 10 14 17 18 18 16 14 14 14 19
4 1 3 41 33 9 2 4 4 4 5 4 2 3 5 1 4 3 2 2 3 3 4 5 3 4 5 8 9 10 13 15 12 9 14 15 20 19 17 15 17 20 21 19
9 16 9 6 3 2 4 4 3 4 5 5 6 4 3 3 2 2 3 3 2 4 6 4 3 3 5 9 10 11 13 13 12 16 17 18 19 20 19 19 20 20 20 23
7 4 3 2 0 3 5 6 4 5 6 5 5 5 3 2 1 2 3 5 5 5 3 3 4 4 7 10 11 10 10 12 14 14 20 23 22 21 24 20 19 25 23 24
2 2 2 2 1 3 2 3 4 3 7 8 5 4 3 2 3 2 3 2 4 4 3 5 2 8 9 9 10 12 13 13 14 14 19 19 19 18 19 21 27 27 22 25
3 2 2 1 0 1 1 2 3 3 8 6 5 3 1 1 3 2 3 3 3 4 4 1 0 9 10 9 10 12 12 12 11 14 13 17 20 19 18 22 23 25 28 27
2 4 2 3 2 3 2 5 7 3 5 2 3 3 2 2 2 3 4 5 5 2 2 3 4 9 8 8 8 8 9 11 13 15 17 19 19 20 21 24 24 28 31 30
3 2 2 1 3 2 2 2 2 2 2 2 2 3 2 3 2 2 1 2 1 3 1 1 3 7 9 9 9 8 13 13 15 18 17 17 22 27 22 16 20 25 26 28

GFSNW_925_spd_162.txt.gz
Wind_Speed
21 27 32 30 30 29 25 7 5 11 22 7 4 11 21 8 9 12 7 6 12 13 9 7 6 7 1 4 10 8 5 4 8 15 8 8 10 13 15 10 12 12 14 19
20 24 26 29 33 36 17 4 2 6 16 9 10 14 21 20 7 9 9 11 9 8 11 7 12 11 6 9 6 4 7 2 6 11 12 10 8 13 9 6 5 17 14 17
21 21 23 33 32 34 20 3 5 2 3 8 17 19 19 17 11 16 9 7 5 8 12 13 8 7 3 7 10 4 5 9 12 13 14 2 8 11 10 10 4 10 14 22
22 21 25 21 34 37 19 4 4 6 5 11 15 16 12 22 16 13 10 13 11 10 12 12 13 13 13 13 8 4 6 15 14 19 18 15 18 21 21 15 17 13 20 20
23 23 24 22 25 36 11 4 4 3 7 17 19 16 17 24 18 20 11 14 9 11 19 17 13 1 4 7 6 6 1 7 9 17 16 16 21 24 23 21 23 23 24 27
22 21 20 24 27 30 4 2 4 5 9 13 14 18 23 20 17 15 13 12 11 13 13 9 11 12 13 13 13 11 11 8 7 15 10 8 9 21 21 17 23 22 20 26
19 19 20 21 25 28 7 4 6 7 7 14 18 15 20 18 14 9 4 7 12 1 4 10 12 13 15 16 18 15 14 13 10 12 12 16 14 14 11 14 18 18 19 23
18 17 16 16 20 26 13 8 5 4 3 11 15 14 12 10 9 11 9 8 9 6 3 5 6 9 12 22 22 21 18 15 12 12 13 17 20 16 16 13 19 14 18 18
16 17 19 18 17 21 23 16 7 2 4 8 11 14 15 12 10 9 8 7 10 7 3 3 4 5 8 7 8 14 23 19 14 14 15 19 19 4 6 8 16 13 12 12
14 15 15 17 20 21 15 8 17 3 4 6 14 11 12 11 11 9 6 9 7 10 6 9 12 12 13 8 14 8 7 12 17 17 17 18 21 17 7 12 10 3 2 3
15 16 16 17 16 16 19 12 18 13 3 7 7 11 11 9 11 12 7 7 7 7 7 7 10 11 12 14 19 16 13 9 10 13 19 20 14 10 19 5 3 3 2 4
16 16 19 19 19 19 20 9 13 15 5 3 8 17 20 23 20 10 8 11 6 7 6 8 7 11 7 11 15 17 16 14 12 8 6 4 2 7 4 5 5 2 7 10
18 19 20 21 21 22 23 18 14 13 6 5 11 15 21 23 22 21 10 9 14 14 8 6 6 9 8 12 16 12 10 10 8 12 12 14 5 2 1 3 6 1 8 14
22 23 25 26 26 26 26 24 21 22 4 5 9 16 25 29 25 25 23 20 13 10 8 8 6 7 4 9 9 15 10 9 12 14 13 5 8 6 4 3 8 11 12 14
22 23 25 26 27 26 25 26 25 32 11 2 2 9 18 15 25 26 29 27 17 10 6 6 7 4 4 8 5 11 10 8 7 7 4 7 7 7 9 12 13 14 17 18
32 35 36 35 33 28 17 4 24 31 28 3 4 3 3 11 21 23 21 17 13 10 8 6 7 14 4 4 5 12 14 11 11 10 6 7 4 10 12 13 14 14 14 16
33 31 29 31 34 32 9 4 6 41 27 2 3 4 5 12 14 14 8 16 6 8 5 8 12 7 5 4 10 5 5 7 6 5 10 8 13 7 12 15 16 20 19 20
20 27 28 27 23 21 11 6 11 41 12 3 3 3 4 8 5 4 5 5 7 7 6 5 9 7 6 7 11 13 16 10 7 13 11 10 13 15 15 19 19 18 16 16
18 15 23 18 11 5 9 12 39 23 4 6 5 7 4 7 6 5 6 6 6 5 6 9 5 7 8 10 14 15 12 9 9 10 5 16 18 19 18 18 17 17 16 15
6 16 5 4 11 44 31 8 3 2 2 3 3 7 4 5 6 5 6 5 6 5 7 3 5 13 19 18 17 14 11 12 15 15 13 15 17 18 20 19 16 15 15 19
1 2 2 34 36 9 3 4 4 5 5 5 4 7 6 3 9 5 5 4 4 4 6 6 4 6 14 19 22 18 13 14 17 15 16 19 22 20 18 17 15 20 21 19
6 17 11 6 3 3 5 6 5 7 6 7 7 6 6 3 2 4 4 3 4 4 8 4 4 6 10 7 12 14 12 14 14 12 16 16 17 21 18 17 19 20 20 21
9 3 2 4 2 4 6 9 4 5 6 7 6 6 3 3 4 2 3 6 5 5 4 4 5 1 2 5 7 10 11 12 13 13 19 23 22 22 22 19 20 22 21 20
2 3 5 4 4 5 4 8 7 5 8 11 12 5 4 3 5 2 4 3 3 4 4 5 1 3 5 7 8 10 11 11 13 14 17 17 18 18 19 19 23 23 22 21
2 1 2 3 1 1 2 3 5 5 9 12 8 4 3 3 3 3 2 5 4 5 3 2 5 0 6 7 7 9 10 10 11 12 14 16 20 19 19 19 20 19 22 21
1 3 1 1 3 3 2 4 6 8 9 6 3 4 4 4 3 5 5 3 5 1 2 4 4 2 5 7 7 7 8 9 11 15 17 19 18 19 21 19 17 19 22 22
2 2 2 2 4 3 2 5 4 2 5 3 3 3 2 4 3 4 2 2 3 4 4 3 3 4 5 7 8 8 10 11 14 16 17 18 19 21 20 16 15 17 17 18

GFSNW_925_spd_165.txt.gz
Wind_Speed
18 19 23 23 26 26 25 9 5 15 23 8 5 14 24 22 16 15 12 12 18 19 19 18 17 16 5 12 8 6 5 5 11 16 19 12 13 16 19 12 14 9 15 19
17 18 19 22 27 27 21 4 4 7 22 9 14 20 24 24 23 18 15 16 16 18 19 17 15 13 13 4 5 5 6 5 11 18 18 19 14 15 21 17 14 17 15 15
17 19 19 19 24 28 29 3 5 3 2 13 20 22 22 20 21 22 16 17 12 18 18 16 12 12 5 3 2 4 5 13 18 14 17 7 3 7 12 3 6 16 14 21
18 19 20 22 23 32 25 6 4 9 7 8 20 19 14 20 18 14 14 19 16 17 16 17 18 18 16 12 9 12 9 15 17 22 24 25 25 24 16 18 16 15 19 21
19 20 22 22 22 28 14 3 4 5 8 20 20 17 19 21 16 21 13 15 18 21 19 16 15 10 14 16 9 12 12 14 15 20 21 22 25 27 26 24 25 25 25 26
20 21 23 25 25 25 2 6 8 5 11 15 15 17 20 18 16 18 8 13 11 15 15 10 11 12 11 11 11 13 13 10 12 18 16 16 14 25 20 18 21 21 22 26
20 22 22 23 22 25 7 6 7 3 6 12 15 18 21 20 17 17 3 8 13 4 6 7 9 11 14 15 17 16 18 17 13 15 17 20 18 16 19 22 17 17 22 23
18 18 18 19 22 24 15 4 2 3 7 11 16 20 18 17 15 10 11 4 2 4 5 4 6 9 15 22 23 20 20 17 14 15 17 20 20 22 17 12 20 20 19 18
15 15 15 16 14 17 16 9 6 2 3 7 5 7 18 13 13 13 12 6 10 8 2 3 4 9 13 6 19 26 24 21 14 15 16 22 24 22 21 11 17 16 19 21
13 13 13 11 12 11 14 8 11 3 4 7 8 7 9 14 11 9 10 13 10 9 6 7 9 13 11 11 10 11 17 18 20 16 17 21 24 22 14 12 13 3 13 6
10 11 11 12 14 14 9 6 11 7 3 1 4 10 9 5 8 12 9 9 9 8 8 9 10 11 16 18 21 21 9 5 8 15 20 19 17 19 22 18 10 5 6 5
11 11 11 12 13 14 15 5 11 9 2 4 5 12 12 19 17 8 5 7 9 10 7 8 9 10 10 15 16 19 18 16 13 8 5 8 6 8 10 7 5 5 5 5
10 11 12 14 14 14 16 10 7 5 2 6 11 12 16 20 22 18 10 9 12 11 7 5 6 10 11 14 17 18 20 18 16 19 20 20 21 12 4 3 2 6 5 5
12 13 13 14 14 15 16 15 11 10 2 3 8 15 22 25 19 22 18 15 13 12 8 9 8 9 9 13 17 15 12 8 13 15 18 20 12 10 9 5 4 8 13 13
17 17 17 17 17 18 18 17 18 19 10 3 2 8 16 17 22 24 24 22 16 10 9 7 11 12 12 11 12 15 14 17 10 10 13 9 10 1 6 5 8 12 15 16
20 20 20 20 20 19 14 3 22 24 24 3 4 3 7 13 21 24 21 20 14 11 9 7 10 13 3 4 11 17 18 20 21 16 14 8 10 6 9 9 10 10 13 15
20 21 23 23 23 23 6 2 1 30 23 2 4 4 6 12 14 12 10 17 9 9 10 10 11 10 3 8 16 17 19 19 11 4 3 4 4 2 10 13 12 15 17 18
30 30 27 32 33 31 25 40 10 24 9 4 4 3 4 6 3 5 8 6 7 6 4 6 10 10 9 9 16 16 17 16 10 7 8 8 8 10 11 15 16 16 15 14
21 20 14 16 10 6 10 16 25 23 5 4 4 7 4 7 4 4 7 5 5 4 7 11 6 8 11 12 16 16 13 12 11 8 8 12 12 15 15 16 17 16 15 15
20 11 6 3 9 31 31 5 3 3 3 4 4 8 6 6 6 6 6 5 5 5 9 6 10 16 20 22 20 16 14 12 11 13 12 14 14 16 18 17 16 15 16 16
6 3 3 23 36 8 2 4 5 6 4 5 6 9 7 7 6 7 7 5 5 4 6 9 6 10 16 23 25 22 20 18 13 14 13 14 16 17 17 16 16 18 20 17
8 11 11 6 4 4 5 7 5 7 6 7 10 8 8 5 3 5 5 4 4 5 7 4 4 7 13 14 14 13 17 19 14 14 10 11 15 17 16 16 15 19 19 20
20 4 3 4 3 6 7 10 5 5 6 6 8 5 4 4 5 3 4 4 4 6 3 4 4 0 4 5 4 5 2 7 7 9 11 15 18 23 21 15 19 22 22 21
3 4 5 5 5 6 4 8 9 6 8 11 11 8 4 3 6 3 4 5 3 4 4 5 1 7 6 1 1 3 3 4 9 10 12 14 15 15 21 20 23 23 21 21
1 3 3 4 1 3 4 5 4 7 8 11 9 4 4 5 3 3 2 4 5 5 3 3 4 7 3 2 3 4 6 7 8 9 12 13 19 19 19 19 20 20 22 21
1 2 2 1 2 2 2 2 3 5 8 8 4 4 4 4 3 5 6 3 4 2 3 4 6 4 2 1 3 5 6 7 8 12 16 18 18 18 21 21 18 19 20 21
2 1 1 3 3 3 2 4 3 5 8 4 2 6 6 3 4 5 3 2 3 4 4 4 5 6 2 4 6 7 8 9 12 14 15 17 19 22 22 16 16 17 17 16

GFSNW_925_spd_171.txt.gz
Wind_Speed
13 12 12 11 12 10 11 4 3 7 13 8 3 8 6 10 17 12 12 12 13 13 14 14 10 12 4 7 5 3 5 3 5 6 4 8 2 4 3 2 1 3 3 4
14 13 12 11 9 8 5 3 2 11 6 9 11 8 14 11 15 16 9 10 13 14 11 8 11 9 3 6 4 3 5 4 4 8 2 1 4 4 3 3 2 2 1 4
12 12 12 9 8 7 5 1 3 3 3 5 9 18 17 17 15 19 17 16 16 16 12 12 5 7 4 4 4 7 6 1 3 5 8 6 5 7 7 6 3 3 4 11
12 11 11 10 9 7 3 2 3 3 3 7 8 10 6 16 18 16 15 15 19 17 13 10 10 10 5 1 4 4 4 6 8 15 17 12 14 14 12 7 7 5 14 12
13 11 10 10 9 8 6 3 3 2 6 9 9 12 11 19 19 14 14 17 11 11 14 5 5 7 2 3 6 5 6 6 5 9 13 15 15 13 15 11 8 13 13 15
13 12 12 12 11 10 5 2 2 1 6 6 8 13 18 22 20 19 16 10 2 9 7 6 6 5 5 4 0 3 5 4 5 8 6 7 5 11 8 6 6 8 9 15
13 13 14 15 16 15 16 8 3 2 10 7 11 15 16 24 25 25 12 6 8 4 7 4 3 5 4 5 5 5 8 4 3 3 2 3 8 9 10 11 14 12 12 11
14 16 16 17 18 18 19 15 7 3 8 9 16 20 21 16 25 22 8 11 12 10 6 3 1 2 2 7 11 11 10 11 3 2 3 10 15 19 4 13 17 19 14 9
15 14 14 14 16 17 18 17 17 2 6 12 14 6 8 9 6 10 7 8 6 5 3 3 4 3 4 4 4 17 14 13 7 2 5 10 20 11 9 6 9 5 3 4
14 13 12 12 12 12 17 10 21 6 4 3 2 3 3 4 1 2 5 5 1 1 2 3 3 4 2 3 3 3 0 2 8 12 7 11 9 9 15 15 10 9 8 5
11 12 11 10 11 11 13 8 19 10 3 4 4 3 4 3 2 2 4 4 1 1 2 3 4 4 5 5 4 3 4 3 2 2 6 13 8 12 6 3 4 7 10 4
6 6 8 11 9 8 9 4 8 16 4 3 9 15 12 12 6 4 2 2 1 2 2 2 3 1 1 4 2 2 3 4 2 4 5 6 5 11 15 8 7 4 11 8
5 6 7 9 11 11 10 1 3 4 3 4 1 5 8 7 4 2 4 2 4 1 3 1 2 1 2 3 4 4 3 3 4 4 3 5 3 6 4 14 9 5 5 7
5 6 6 7 7 8 9 7 4 6 2 0 4 9 4 9 8 7 7 3 5 1 3 2 2 2 3 3 4 3 4 3 5 12 9 6 5 5 5 8 7 6 4 5
5 5 5 5 4 5 6 8 10 7 2 2 4 16 18 13 11 14 13 9 4 2 2 2 4 2 2 3 1 5 3 7 4 7 6 10 10 5 3 5 8 6 7 7
8 7 6 6 6 5 1 3 5 11 6 1 3 4 5 11 9 9 6 5 3 4 4 3 3 3 2 3 3 4 11 15 14 15 17 13 5 10 2 8 10 5 8 13
10 9 8 8 9 9 3 3 2 3 9 1 3 3 3 10 7 1 1 4 3 3 2 3 3 2 2 2 11 13 14 20 17 13 7 3 3 3 5 8 3 12 16 18
10 9 9 8 8 7 9 19 9 3 3 2 2 4 2 2 1 1 2 2 1 1 3 2 4 2 4 6 9 10 14 16 16 14 7 5 5 3 5 5 7 10 10 13
10 7 5 6 4 4 6 7 10 12 3 2 2 2 2 3 1 1 0 3 1 3 3 3 4 3 6 7 11 13 17 14 5 5 8 7 8 8 10 10 11 10 11 11
12 8 6 3 8 9 16 6 2 3 3 3 4 2 3 4 2 2 2 2 3 2 5 3 3 8 16 15 14 11 11 10 8 9 13 6 9 11 12 13 11 10 11 10
7 4 4 3 23 8 3 3 4 4 3 4 4 10 8 3 3 3 3 3 2 2 4 6 3 4 11 17 20 18 19 18 16 12 11 15 15 14 12 11 11 13 16 12
11 7 7 9 2 3 4 5 3 5 5 4 4 5 8 3 2 3 3 3 2 4 2 1 3 3 7 4 3 5 10 11 17 17 17 12 16 15 16 15 14 18 18 18
8 4 4 3 4 6 5 7 4 4 4 4 3 1 4 2 2 2 2 2 4 2 4 3 1 8 10 10 9 7 8 9 8 11 10 17 15 21 20 14 21 23 18 21
3 4 5 4 4 5 5 4 5 5 4 4 4 3 3 3 3 3 2 5 1 2 1 3 1 4 5 8 6 6 9 10 10 8 15 17 15 12 19 21 24 23 19 21
3 3 4 6 4 1 2 4 1 1 4 4 4 2 2 2 2 3 2 2 3 4 0 1 1 3 4 5 6 6 5 5 5 6 10 11 14 14 15 20 23 24 25 25
3 3 3 2 1 1 3 3 3 2 3 2 2 3 3 4 3 3 5 2 2 1 1 1 3 5 7 5 5 3 3 3 4 5 10 14 14 14 17 20 23 25 28 27
2 2 1 2 3 3 2 2 2 2 3 3 3 4 7 1 1 3 2 2 1 1 0 1 4 5 5 4 3 3 2 4 6 9 11 14 19 22 20 12 15 22 23 27